{"data":{"norad_id":64878,"epoch":"2026-09-19T22:57:33.868800Z","epoch_age_seconds":61378,"freshness":"FRESH","line1":"1 64878U 25155C   26262.95664200  .00004007  00000+0  15692-3 0  9997","line2":"2 64878  97.4687 229.9053 0009363 201.8157 158.2684 15.26353095 95121","mean_motion":15.26353095,"eccentricity":0.0009363,"inclination_deg":97.4687,"raan_deg":229.9053,"arg_perigee_deg":201.8157,"mean_anomaly_deg":158.2684,"bstar":0.00015692,"rev_number":9512,"period_min":94.342521708583,"perigee_km":480.29778102205,"apogee_km":493.15292226174,"semimajor_km":6864.8623516419,"source":"CELESTRAK","updated_at":"2026-09-20T09:00:45.265962Z"}}